COSMOS 2491 DEB, 47111

Orbit data source: Space-Track

COSMOS 2491 DEB, 47111 is space debris in LEO originally from a launch on Wed, 25 Dec 2013 UTC launched from the Plesetsk Missile And Space Complex (PKMTR). Debris objects in space refer to the collection of defunct objects orbiting the Earth. Examples of debris include non-operational satellites, rocket bodies, and fragments generated from explosions, collisions, or faulty payload assembly.

Loading next visibility...
Identifier
47111, 2013-076AG
Orbit
LEO
Last TLE update
3 months ago
Origin
Manufacturer
TsNIIKhM
Mission
Spacecraft
Bus & Motor
Unknown
Mass
Unknown
Launch date (UTC)
2013-12-25 (12 years ago)
Launch vehicle
Unknown
Launch site
Plesetsk Missile And Space Complex (PKMTR)
Object type
Payload
Rocket body
Debris
Shape & HBR
Unknown
Radar Cross Section
Small (<0.1 m²)

Expand to show TLE details & history

TLE from 3 months ago
0 COSMOS 2491 DEB
1 47111U 13076AG  25105.15389103  .00006648  00000-0  38933-1 0  9995
2 47111  82.4492  56.0111 0117258  56.3343 304.8863 12.56720049 85435
Epoch: 2025-04-15T03:41Z
TLE epoch observation values (Epoch: 2025-04-15T03:41:36.184Z)
Latitude
0.00001°
Longitude
157.05176°
Altitude
1,387.542 km
Speed
7.189 km/s
True Right ascension
03h 44m 02s
True Declination
0° 00' 00"
Sunlit
Object was in daylight at epoch
Visualization orbit readout
Latitude
-20.66122°
Longitude
104.00165°
Altitude
1,450.662 km
Speed
7.131 km/s
Apparent Right ascension
02h 00m 05s
Apparent Declination
-33° 59' 14"
Sunlit
Object is in daylight
Visualization observer readout
Local Sidereal Time
16:51:39
Azimuth
93.948° ESE
Elevation
-55.552°
Doppler factor
1
Orbital elements
Apogee altitude
1,525.447 km
Perigee altitude
1,342.243 km
Semi-major axis
7,811.982 km
Eccentricity
0.01173
Inclination
82.4492°
RAAN
56.0111°
Arg. of periapsis
56.3343°
True anomaly
Unknown
Mean anomaly
304.8863°
Eccentric anomaly
Unknown
Mean motion
3.14341 °/min
Orbital period
114.53 mins
BSTAR
0.038933
Loading maneuver chart data...
Loading SW <> Apogee altitude chart data...
Loading historical data...
Loading historical data...
Loading historical data...
Loading historical data...
Loading historical data...
Loading historical data...
Loading historical data...

COSMOS 2491 DEB Visibility forecast

Observer location: undefined°, undefined°

Span
Click to sort rows by Start time (UTC) header in descending order
Start Az.
Max El. time (UTC)
Max El. Az.
Max El.
End time (UTC)
End Az.
10 mins2025-07-02 11:09:08.002Z112.592° SE2025-07-02 11:14:08.002Z75.112° E17.763°2025-07-02 11:19:08.002Z39.668° NE
15 mins2025-07-02 13:01:08.002Z187.336° SSW2025-07-02 13:08:08.002Z310.404° NW44.944°2025-07-02 13:16:08.002Z7.07° NNE
9 mins2025-07-02 15:01:08.002Z269.457° W2025-07-02 15:05:08.002Z300.636° NW17.483°2025-07-02 15:10:08.002Z336.485° NNW
14 mins2025-07-02 23:05:08.002Z8.312° NNE2025-07-02 23:12:08.002Z73.213° E33.381°2025-07-02 23:19:08.002Z138.973° SSE
14 mins2025-07-03 01:01:08.002Z334.298° NNW2025-07-03 01:07:08.002Z279.417° WNW33.515°2025-07-03 01:15:08.002Z206.729° SW
|